Time,TemperatureF,DewpointF,PressureIn,WindDirection,WindDirectionDegrees,WindSpeedMPH,WindSpeedGustMPH,Humidity,HourlyPrecipIn,Conditions,Clouds,dailyrainin,SoftwareType,DateUTC
2013-08-13 00:00:00,65.7,59.7,29.98,East,100,0.0,0.0,81,0.00,,CLR,0.00,VWS V14.01,2013-08-13 07:00:00,
2013-08-13 00:06:00,65.7,59.7,29.97,East,100,0.0,0.0,81,0.00,,CLR,0.00,VWS V14.01,2013-08-13 07:06:00,
2013-08-13 00:11:00,65.5,59.5,29.97,East,100,0.0,0.0,81,0.00,,CLR,0.00,VWS V14.01,2013-08-13 07:11:00,
2013-08-13 00:16:00,65.5,59.5,29.97,East,100,0.0,0.0,81,0.00,,CLR,0.00,VWS V14.01,2013-08-13 07:16:00,
2013-08-13 00:21:00,65.3,59.3,29.97,East,100,0.0,0.0,81,0.00,,CLR,0.00,VWS V14.01,2013-08-13 07:21:00,
2013-08-13 00:26:00,65.2,58.9,29.97,East,100,0.0,0.0,80,0.00,,CLR,0.00,VWS V14.01,2013-08-13 07:26:00,
2013-08-13 00:31:00,65.2,58.9,29.97,East,100,0.0,0.0,80,0.00,,CLR,0.00,VWS V14.01,2013-08-13 07:31:00,
2013-08-13 00:36:00,65.0,58.7,29.97,East,100,0.0,0.0,80,0.00,,CLR,0.00,VWS V14.01,2013-08-13 07:36:00,
2013-08-13 00:41:00,65.0,58.7,29.97,East,100,0.0,0.0,80,0.00,,CLR,0.00,VWS V14.01,2013-08-13 07:41:00,
2013-08-13 00:46:00,65.0,58.7,29.97,East,100,0.0,0.0,80,0.00,,CLR,0.00,VWS V14.01,2013-08-13 07:46:00,
2013-08-13 00:51:00,64.7,58.4,29.98,East,100,0.0,0.0,80,0.00,,CLR,0.00,VWS V14.01,2013-08-13 07:51:00,
2013-08-13 00:57:00,64.7,58.4,29.98,East,100,0.0,0.0,80,0.00,,CLR,0.00,VWS V14.01,2013-08-13 07:57:00,
2013-08-13 01:02:00,64.5,58.2,29.98,East,100,0.0,0.0,80,0.00,,CLR,0.00,VWS V14.01,2013-08-13 08:02:00,
2013-08-13 01:07:00,64.4,58.1,29.98,East,100,0.0,0.0,80,0.00,,CLR,0.00,VWS V14.01,2013-08-13 08:07:00,
2013-08-13 01:12:00,64.2,57.9,29.98,East,100,0.0,0.0,80,0.00,,CLR,0.00,VWS V14.01,2013-08-13 08:12:00,
2013-08-13 01:17:00,64.1,57.8,29.98,East,100,0.0,0.0,80,0.00,,CLR,0.00,VWS V14.01,2013-08-13 08:17:00,
2013-08-13 01:22:00,64.1,57.8,29.98,East,100,0.0,0.0,80,0.00,,CLR,0.00,VWS V14.01,2013-08-13 08:22:00,
2013-08-13 01:27:00,63.9,57.6,29.98,East,100,0.0,0.0,80,0.00,,CLR,0.00,VWS V14.01,2013-08-13 08:27:00,
2013-08-13 01:32:00,63.7,57.4,29.98,East,100,0.0,0.0,80,0.00,,CLR,0.00,VWS V14.01,2013-08-13 08:32:00,
2013-08-13 01:37:00,63.6,57.3,29.98,East,100,0.0,0.0,80,0.00,,CLR,0.00,VWS V14.01,2013-08-13 08:37:00,
2013-08-13 01:42:00,63.4,57.1,29.98,East,100,0.0,0.0,80,0.00,,CLR,0.00,VWS V14.01,2013-08-13 08:42:00,
2013-08-13 01:47:00,63.4,57.1,29.98,East,100,0.0,0.0,80,0.00,,CLR,0.00,VWS V14.01,2013-08-13 08:47:00,
2013-08-13 01:52:00,63.1,57.2,29.98,East,100,0.0,0.0,81,0.00,,CLR,0.00,VWS V14.01,2013-08-13 08:52:00,
2013-08-13 01:58:00,63.1,57.2,29.98,East,100,0.0,0.0,81,0.00,,CLR,0.00,VWS V14.01,2013-08-13 08:58:00,
2013-08-13 02:03:00,63.0,57.1,29.98,East,100,0.0,0.0,81,0.00,,CLR,0.00,VWS V14.01,2013-08-13 09:03:00,
2013-08-13 02:08:00,62.8,56.9,29.98,East,100,0.0,0.0,81,0.00,,CLR,0.00,VWS V14.01,2013-08-13 09:08:00,
2013-08-13 02:13:00,62.8,56.9,29.98,East,100,0.0,0.0,81,0.00,,CLR,0.00,VWS V14.01,2013-08-13 09:13:00,
2013-08-13 02:18:00,62.5,56.6,29.99,East,100,0.0,0.0,81,0.00,,CLR,0.00,VWS V14.01,2013-08-13 09:18:00,
2013-08-13 02:23:00,62.5,56.9,29.99,East,100,0.0,0.0,82,0.00,,CLR,0.00,VWS V14.01,2013-08-13 09:23:00,
2013-08-13 02:28:00,62.3,56.7,29.99,East,100,0.0,0.0,82,0.00,,CLR,0.00,VWS V14.01,2013-08-13 09:28:00,
2013-08-13 02:33:00,62.3,56.7,29.99,East,100,0.0,0.0,82,0.00,,CLR,0.00,VWS V14.01,2013-08-13 09:33:00,
2013-08-13 02:38:00,62.2,56.6,29.99,East,100,0.0,0.0,82,0.00,,CLR,0.00,VWS V14.01,2013-08-13 09:38:00,
2013-08-13 02:43:00,62.0,56.5,29.99,East,100,0.0,0.0,82,0.00,,CLR,0.00,VWS V14.01,2013-08-13 09:43:00,
2013-08-13 02:49:00,61.9,56.3,30.00,East,100,0.0,0.0,82,0.00,,CLR,0.00,VWS V14.01,2013-08-13 09:49:00,
2013-08-13 02:54:00,61.9,56.3,30.00,East,100,0.0,0.0,82,0.00,,CLR,0.00,VWS V14.01,2013-08-13 09:54:00,
2013-08-13 02:59:00,61.9,56.3,30.00,East,100,0.0,0.0,82,0.00,,CLR,0.00,VWS V14.01,2013-08-13 09:59:00,
2013-08-13 03:04:00,61.7,56.2,29.99,East,100,0.0,0.0,82,0.00,,CLR,0.00,VWS V14.01,2013-08-13 10:04:00,
2013-08-13 03:09:00,61.5,56.0,29.99,East,100,0.0,0.0,82,0.00,,CLR,0.00,VWS V14.01,2013-08-13 10:09:00,
2013-08-13 03:14:00,61.4,57.5,29.99,East,100,0.0,0.0,87,0.00,,CLR,0.00,VWS V14.01,2013-08-13 10:14:00,
2013-08-13 03:19:00,61.2,57.3,30.00,East,100,0.0,0.0,87,0.00,,CLR,0.00,VWS V14.01,2013-08-13 10:19:00,
2013-08-13 03:24:00,61.1,57.2,30.00,East,100,0.0,0.0,87,0.00,,CLR,0.00,VWS V14.01,2013-08-13 10:24:00,
2013-08-13 03:29:00,61.1,57.2,30.00,East,100,0.0,0.0,87,0.00,,CLR,0.00,VWS V14.01,2013-08-13 10:29:00,
2013-08-13 03:34:00,60.8,57.2,30.00,East,100,0.0,0.0,88,0.00,,CLR,0.00,VWS V14.01,2013-08-13 10:34:00,
2013-08-13 03:39:00,60.6,57.0,30.00,East,100,0.0,0.0,88,0.00,,CLR,0.00,VWS V14.01,2013-08-13 10:39:00,
2013-08-13 03:44:00,60.6,57.0,30.00,East,100,0.0,0.0,88,0.00,,CLR,0.00,VWS V14.01,2013-08-13 10:44:00,
2013-08-13 03:50:00,60.5,56.9,30.00,East,100,0.0,0.0,88,0.00,,CLR,0.00,VWS V14.01,2013-08-13 10:50:00,
2013-08-13 03:55:00,60.3,56.7,30.00,East,100,0.0,0.0,88,0.00,,CLR,0.00,VWS V14.01,2013-08-13 10:55:00,
2013-08-13 04:00:00,60.2,56.6,30.00,East,100,0.0,0.0,88,0.00,,CLR,0.00,VWS V14.01,2013-08-13 11:00:00,
2013-08-13 04:05:00,60.0,56.8,30.00,East,100,0.0,0.0,89,0.00,,CLR,0.00,VWS V14.01,2013-08-13 11:05:00,
2013-08-13 04:10:00,59.9,56.7,30.00,East,100,0.0,0.0,89,0.00,,CLR,0.00,VWS V14.01,2013-08-13 11:10:00,
2013-08-13 04:15:00,59.9,57.0,30.00,East,100,0.0,0.0,90,0.00,,CLR,0.00,VWS V14.01,2013-08-13 11:15:00,
2013-08-13 04:20:00,59.7,56.8,30.00,East,100,0.0,0.0,90,0.00,,CLR,0.00,VWS V14.01,2013-08-13 11:20:00,
2013-08-13 04:25:00,59.7,56.8,30.00,East,100,0.0,0.0,90,0.00,,CLR,0.00,VWS V14.01,2013-08-13 11:25:00,
2013-08-13 04:30:00,59.6,56.7,30.00,East,100,0.0,0.0,90,0.00,,CLR,0.00,VWS V14.01,2013-08-13 11:30:00,
2013-08-13 04:35:00,59.3,56.4,30.00,East,100,0.0,0.0,90,0.00,,CLR,0.00,VWS V14.01,2013-08-13 11:35:00,
2013-08-13 04:41:00,59.1,56.2,30.00,East,100,0.0,0.0,90,0.00,,CLR,0.00,VWS V14.01,2013-08-13 11:41:00,
2013-08-13 04:46:00,59.1,56.2,30.00,East,100,0.0,0.0,90,0.00,,CLR,0.00,VWS V14.01,2013-08-13 11:46:00,
2013-08-13 04:51:00,59.1,56.2,30.00,East,100,0.0,0.0,90,0.00,,CLR,0.00,VWS V14.01,2013-08-13 11:51:00,
2013-08-13 04:56:00,59.0,56.1,30.00,East,100,0.0,0.0,90,0.00,,CLR,0.00,VWS V14.01,2013-08-13 11:56:00,
2013-08-13 05:01:00,59.0,56.1,30.00,ESE,102,0.0,0.0,90,0.00,,CLR,0.00,VWS V14.01,2013-08-13 12:01:00,
2013-08-13 05:06:00,58.6,55.7,30.01,East,100,0.0,0.0,90,0.00,,CLR,0.00,VWS V14.01,2013-08-13 12:06:00,
2013-08-13 05:11:00,58.5,55.6,30.01,East,100,0.0,0.0,90,0.00,,CLR,0.00,VWS V14.01,2013-08-13 12:11:00,
2013-08-13 05:16:00,58.5,55.6,30.01,East,100,0.0,0.0,90,0.00,,CLR,0.00,VWS V14.01,2013-08-13 12:16:00,
2013-08-13 05:21:00,58.3,55.4,30.01,East,100,0.0,0.0,90,0.00,,CLR,0.00,VWS V14.01,2013-08-13 12:21:00,
2013-08-13 05:27:00,58.2,55.3,30.01,East,100,0.0,0.0,90,0.00,,CLR,0.00,VWS V14.01,2013-08-13 12:27:00,
2013-08-13 05:32:00,58.2,55.6,30.01,East,100,0.0,0.0,91,0.00,,CLR,0.00,VWS V14.01,2013-08-13 12:32:00,
2013-08-13 05:37:00,58.2,55.6,30.02,East,100,0.0,0.0,91,0.00,,CLR,0.00,VWS V14.01,2013-08-13 12:37:00,
2013-08-13 05:42:00,58.5,55.9,30.02,East,100,0.0,0.0,91,0.00,,CLR,0.00,VWS V14.01,2013-08-13 12:42:00,
2013-08-13 05:47:00,58.5,55.9,30.02,East,100,0.0,0.0,91,0.00,,CLR,0.00,VWS V14.01,2013-08-13 12:47:00,
2013-08-13 05:52:00,58.5,56.2,30.02,East,100,0.0,0.0,92,0.00,,CLR,0.00,VWS V14.01,2013-08-13 12:52:00,
2013-08-13 05:57:00,58.6,56.3,30.02,East,100,0.0,0.0,92,0.00,,CLR,0.00,VWS V14.01,2013-08-13 12:57:00,
2013-08-13 06:02:00,58.8,56.5,30.03,East,100,0.0,0.0,92,0.00,,CLR,0.00,VWS V14.01,2013-08-13 13:02:00,
2013-08-13 06:07:00,59.0,56.7,30.03,East,100,0.0,0.0,92,0.00,,CLR,0.00,VWS V14.01,2013-08-13 13:07:00,
2013-08-13 06:13:00,59.3,57.0,30.03,East,100,0.0,0.0,92,0.00,,CLR,0.00,VWS V14.01,2013-08-13 13:13:00,
2013-08-13 06:18:00,59.7,57.4,30.03,East,100,0.0,0.0,92,0.00,,CLR,0.00,VWS V14.01,2013-08-13 13:18:00,
2013-08-13 06:23:00,59.7,57.4,30.03,East,100,0.0,0.0,92,0.00,,CLR,0.00,VWS V14.01,2013-08-13 13:23:00,
2013-08-13 06:28:00,60.2,57.0,30.03,East,100,0.0,0.0,89,0.00,,CLR,0.00,VWS V14.01,2013-08-13 13:28:00,
2013-08-13 06:33:00,60.3,57.0,30.03,East,100,0.0,0.0,89,0.00,,CLR,0.00,VWS V14.01,2013-08-13 13:33:00,
2013-08-13 06:38:00,60.5,57.2,30.03,East,100,0.0,0.0,89,0.00,,CLR,0.00,VWS V14.01,2013-08-13 13:38:00,
2013-08-13 06:43:00,60.6,56.7,30.03,East,100,0.0,0.0,87,0.00,,CLR,0.00,VWS V14.01,2013-08-13 13:43:00,
2013-08-13 06:48:00,60.9,57.0,30.04,East,100,0.0,0.0,87,0.00,,CLR,0.00,VWS V14.01,2013-08-13 13:48:00,
2013-08-13 06:53:00,60.9,57.0,30.04,East,100,0.0,0.0,87,0.00,,CLR,0.00,VWS V14.01,2013-08-13 13:53:00,
2013-08-13 06:58:00,61.1,57.2,30.04,East,100,0.0,0.0,87,0.00,,CLR,0.00,VWS V14.01,2013-08-13 13:58:00,
2013-08-13 07:03:00,61.2,57.3,30.04,East,100,0.0,0.0,87,0.00,,CLR,0.00,VWS V14.01,2013-08-13 14:03:00,
2013-08-13 07:08:00,61.4,57.8,30.04,East,100,0.0,0.0,88,0.00,,CLR,0.00,VWS V14.01,2013-08-13 14:08:00,
2013-08-13 07:14:00,61.5,57.9,30.04,East,100,0.0,0.0,88,0.00,,CLR,0.00,VWS V14.01,2013-08-13 14:14:00,
2013-08-13 07:19:00,61.7,58.1,30.04,East,100,0.0,0.0,88,0.00,,CLR,0.00,VWS V14.01,2013-08-13 14:19:00,
2013-08-13 07:24:00,61.9,58.3,30.04,East,100,0.0,0.0,88,0.00,,CLR,0.00,VWS V14.01,2013-08-13 14:24:00,
2013-08-13 07:29:00,62.0,58.4,30.04,East,100,0.0,0.0,88,0.00,,CLR,0.00,VWS V14.01,2013-08-13 14:29:00,
2013-08-13 07:34:00,62.2,58.3,30.05,East,100,0.0,0.0,87,0.00,,CLR,0.00,VWS V14.01,2013-08-13 14:34:00,
2013-08-13 07:39:00,62.3,58.4,30.05,East,100,0.0,0.0,87,0.00,,CLR,0.00,VWS V14.01,2013-08-13 14:39:00,
2013-08-13 07:44:00,62.5,58.6,30.05,East,100,0.0,0.0,87,0.00,,CLR,0.00,VWS V14.01,2013-08-13 14:44:00,
2013-08-13 07:49:00,62.6,58.0,30.05,East,100,0.0,0.0,85,0.00,,CLR,0.00,VWS V14.01,2013-08-13 14:49:00,
2013-08-13 07:54:00,62.8,58.2,30.05,East,100,0.0,0.0,85,0.00,,CLR,0.00,VWS V14.01,2013-08-13 14:54:00,
2013-08-13 07:59:00,63.1,58.8,30.05,East,100,0.0,0.0,86,0.00,,CLR,0.00,VWS V14.01,2013-08-13 14:59:00,
2013-08-13 08:04:00,63.4,59.5,30.05,East,100,0.0,0.0,87,0.00,,SCT100,0.00,VWS V14.01,2013-08-13 15:04:00,
2013-08-13 08:09:00,63.9,60.0,30.05,East,100,0.0,0.0,87,0.00,,SCT100,0.00,VWS V14.01,2013-08-13 15:09:00,
2013-08-13 08:14:00,64.2,59.9,30.05,East,100,0.0,0.0,86,0.00,,SCT100,0.00,VWS V14.01,2013-08-13 15:14:00,
2013-08-13 08:19:00,64.2,59.9,30.06,East,100,0.0,0.0,86,0.00,,SCT100,0.00,VWS V14.01,2013-08-13 15:19:00,
2013-08-13 08:25:00,65.5,61.2,30.06,East,100,0.0,0.0,86,0.00,,SCT100,0.00,VWS V14.01,2013-08-13 15:25:00,
2013-08-13 08:30:00,66.5,62.2,30.06,East,100,0.0,0.0,86,0.00,,SCT100,0.00,VWS V14.01,2013-08-13 15:30:00,
2013-08-13 08:35:00,67.3,60.9,30.06,East,100,0.0,0.0,80,0.00,,SCT100,0.00,VWS V14.01,2013-08-13 15:35:00,
2013-08-13 08:40:00,67.9,61.5,30.06,East,100,0.0,0.0,80,0.00,,SCT100,0.00,VWS V14.01,2013-08-13 15:40:00,
2013-08-13 08:45:00,68.6,62.2,30.06,East,100,0.0,0.0,80,0.00,,SCT100,0.00,VWS V14.01,2013-08-13 15:45:00,
2013-08-13 08:50:00,69.1,62.7,30.06,East,100,0.0,0.0,80,0.00,,SCT100,0.00,VWS V14.01,2013-08-13 15:50:00,
2013-08-13 08:55:00,69.4,61.5,30.06,East,100,0.0,0.0,76,0.00,,SCT100,0.00,VWS V14.01,2013-08-13 15:55:00,
2013-08-13 09:00:00,69.6,61.7,30.06,East,100,0.0,0.0,76,0.00,,FEW120,0.00,VWS V14.01,2013-08-13 16:00:00,
2013-08-13 09:06:00,69.8,61.9,30.07,East,100,0.0,0.0,76,0.00,,FEW120,0.00,VWS V14.01,2013-08-13 16:06:00,
2013-08-13 09:11:00,69.8,61.9,30.07,East,100,0.0,0.0,76,0.00,,FEW120,0.00,VWS V14.01,2013-08-13 16:11:00,
2013-08-13 09:16:00,70.3,62.4,30.07,East,100,0.0,0.0,76,0.00,,FEW120,0.00,VWS V14.01,2013-08-13 16:16:00,
2013-08-13 09:21:00,70.3,62.4,30.07,East,100,0.0,0.0,76,0.00,,FEW120,0.00,VWS V14.01,2013-08-13 16:21:00,
2013-08-13 09:26:00,70.9,62.2,30.07,East,100,0.0,0.0,74,0.00,,FEW120,0.00,VWS V14.01,2013-08-13 16:26:00,
2013-08-13 09:31:00,71.3,62.6,30.07,East,100,0.0,0.0,74,0.00,,FEW120,0.00,VWS V14.01,2013-08-13 16:31:00,
2013-08-13 09:36:00,71.3,62.6,30.07,East,100,0.0,0.0,74,0.00,,FEW120,0.00,VWS V14.01,2013-08-13 16:36:00,
2013-08-13 09:41:00,72.1,63.4,30.07,East,100,0.0,0.0,74,0.00,,FEW120,0.00,VWS V14.01,2013-08-13 16:41:00,
2013-08-13 09:46:00,72.8,64.0,30.07,East,100,0.0,0.0,74,0.00,,FEW120,0.00,VWS V14.01,2013-08-13 16:46:00,
2013-08-13 09:51:00,73.1,64.3,30.07,East,100,0.0,0.0,74,0.00,,FEW120,0.00,VWS V14.01,2013-08-13 16:51:00,
2013-08-13 09:56:00,73.3,63.7,30.07,East,100,0.0,0.0,72,0.00,,FEW120,0.00,VWS V14.01,2013-08-13 16:56:00,
2013-08-13 10:01:00,73.7,64.1,30.07,East,100,0.0,0.0,72,0.00,,CLR,0.00,VWS V14.01,2013-08-13 17:01:00,
2013-08-13 10:06:00,74.9,64.1,30.07,East,100,0.0,0.0,69,0.00,,CLR,0.00,VWS V14.01,2013-08-13 17:06:00,
2013-08-13 10:12:00,76.1,62.6,30.07,East,100,0.0,0.0,63,0.00,,CLR,0.00,VWS V14.01,2013-08-13 17:12:00,
2013-08-13 10:17:00,77.1,64.0,30.07,East,100,0.0,0.0,64,0.00,,CLR,0.00,VWS V14.01,2013-08-13 17:17:00,
2013-08-13 10:22:00,77.7,62.7,30.07,East,100,0.0,0.0,60,0.00,,CLR,0.00,VWS V14.01,2013-08-13 17:22:00,
2013-08-13 10:28:00,77.8,62.8,30.07,East,100,0.0,0.0,60,0.00,,CLR,0.00,VWS V14.01,2013-08-13 17:28:00,
2013-08-13 10:33:00,78.2,63.2,30.07,East,100,0.0,0.0,60,0.00,,CLR,0.00,VWS V14.01,2013-08-13 17:33:00,
2013-08-13 10:38:00,79.1,64.0,30.07,East,100,0.0,0.0,60,0.00,,CLR,0.00,VWS V14.01,2013-08-13 17:38:00,
2013-08-13 10:43:00,79.6,55.8,30.07,East,100,0.0,0.0,44,0.00,,CLR,0.00,VWS V14.01,2013-08-13 17:43:00,
2013-08-13 10:48:00,80.2,57.0,30.07,East,100,0.0,0.0,45,0.00,,CLR,0.00,VWS V14.01,2013-08-13 17:48:00,
2013-08-13 10:53:00,80.6,61.4,30.07,East,100,0.0,0.0,52,0.00,,CLR,0.00,VWS V14.01,2013-08-13 17:53:00,
2013-08-13 10:58:00,80.9,58.8,30.07,East,100,0.0,0.0,47,0.00,,CLR,0.00,VWS V14.01,2013-08-13 17:58:00,
2013-08-13 11:03:00,81.3,59.2,30.07,East,100,0.0,0.0,47,0.00,,SCT110,0.00,VWS V14.01,2013-08-13 18:03:00,
2013-08-13 11:08:00,81.7,59.5,30.07,East,100,0.0,0.0,47,0.00,,SCT110,0.00,VWS V14.01,2013-08-13 18:08:00,
2013-08-13 11:14:00,81.5,59.3,30.07,East,100,0.0,0.0,47,0.00,,SCT110,0.00,VWS V14.01,2013-08-13 18:14:00,
2013-08-13 11:19:00,81.5,58.8,30.08,East,100,0.0,0.0,46,0.00,,SCT110,0.00,VWS V14.01,2013-08-13 18:19:00,
2013-08-13 11:24:00,82.1,59.3,30.08,East,100,0.0,0.0,46,0.00,,SCT110,0.00,VWS V14.01,2013-08-13 18:24:00,
2013-08-13 11:29:00,82.8,58.7,30.08,East,100,0.0,0.0,44,0.00,,SCT110,0.00,VWS V14.01,2013-08-13 18:29:00,
2013-08-13 11:34:00,83.2,59.0,30.07,East,100,0.0,0.0,44,0.00,,SCT110,0.00,VWS V14.01,2013-08-13 18:34:00,
2013-08-13 11:39:00,83.0,58.9,30.07,East,100,0.0,0.0,44,0.00,,SCT110,0.00,VWS V14.01,2013-08-13 18:39:00,
2013-08-13 11:44:00,83.0,57.6,30.07,East,100,0.0,0.0,42,0.00,,SCT110,0.00,VWS V14.01,2013-08-13 18:44:00,
2013-08-13 11:49:00,82.8,57.4,30.06,East,100,0.0,1.0,42,0.00,,SCT110,0.00,VWS V14.01,2013-08-13 18:49:00,
2013-08-13 11:54:00,82.8,56.0,30.06,East,100,0.0,0.0,40,0.00,,SCT110,0.00,VWS V14.01,2013-08-13 18:54:00,
2013-08-13 11:59:00,82.8,56.0,30.06,East,100,0.0,0.0,40,0.00,,SCT110,0.00,VWS V14.01,2013-08-13 18:59:00,
2013-08-13 12:04:00,83.2,56.4,30.06,East,100,0.0,0.0,40,0.00,,FEW120,0.00,VWS V14.01,2013-08-13 19:04:00,
2013-08-13 12:09:00,83.2,56.4,30.06,East,100,0.0,0.0,40,0.00,,FEW120,0.00,VWS V14.01,2013-08-13 19:09:00,
2013-08-13 12:15:00,83.2,56.4,30.06,East,100,0.0,0.0,40,0.00,,FEW120,0.00,VWS V14.01,2013-08-13 19:15:00,
2013-08-13 12:20:00,83.2,56.4,30.05,East,100,0.0,0.0,40,0.00,,FEW120,0.00,VWS V14.01,2013-08-13 19:20:00,
2013-08-13 12:25:00,82.2,55.5,30.05,East,100,0.0,0.0,40,0.00,,FEW120,0.00,VWS V14.01,2013-08-13 19:25:00,
2013-08-13 12:30:00,81.7,54.4,30.05,East,100,0.0,0.0,39,0.00,,FEW120,0.00,VWS V14.01,2013-08-13 19:30:00,
2013-08-13 12:35:00,81.7,56.4,30.05,East,100,0.0,0.0,42,0.00,,FEW120,0.00,VWS V14.01,2013-08-13 19:35:00,
2013-08-13 12:40:00,82.1,56.8,30.05,East,100,0.0,0.0,42,0.00,,FEW120,0.00,VWS V14.01,2013-08-13 19:40:00,
2013-08-13 12:45:00,82.8,58.0,30.05,East,100,0.0,0.0,43,0.00,,FEW120,0.00,VWS V14.01,2013-08-13 19:45:00,
2013-08-13 12:50:00,83.4,56.6,30.05,East,100,0.0,0.0,40,0.00,,FEW120,0.00,VWS V14.01,2013-08-13 19:50:00,
2013-08-13 12:55:00,83.8,58.9,30.05,East,100,0.0,0.0,43,0.00,,FEW120,0.00,VWS V14.01,2013-08-13 19:55:00,
2013-08-13 13:00:00,83.8,58.9,30.05,East,100,1.0,1.0,43,0.00,,FEW120,0.00,VWS V14.01,2013-08-13 20:00:00,
2013-08-13 13:05:00,84.2,59.3,30.04,East,100,1.0,1.0,43,0.00,,FEW120,0.00,VWS V14.01,2013-08-13 20:05:00,
2013-08-13 13:10:00,84.4,59.5,30.04,East,100,0.0,0.0,43,0.00,,FEW120,0.00,VWS V14.01,2013-08-13 20:10:00,
2013-08-13 13:16:00,84.8,54.1,30.04,East,100,0.0,0.0,35,0.00,,FEW120,0.00,VWS V14.01,2013-08-13 20:16:00,
2013-08-13 13:21:00,85.1,54.4,30.04,East,100,0.0,0.0,35,0.00,,FEW120,0.00,VWS V14.01,2013-08-13 20:21:00,
2013-08-13 13:26:00,85.5,54.8,30.04,NE,44,0.0,0.0,35,0.00,,FEW120,0.00,VWS V14.01,2013-08-13 20:26:00,
2013-08-13 13:31:00,85.7,54.9,30.04,NE,44,0.0,0.0,35,0.00,,FEW120,0.00,VWS V14.01,2013-08-13 20:31:00,
2013-08-13 13:36:00,85.7,55.7,30.04,SE,137,0.0,0.0,36,0.00,,FEW120,0.00,VWS V14.01,2013-08-13 20:36:00,
2013-08-13 13:41:00,86.1,57.5,30.04,SE,137,0.0,0.0,38,0.00,,FEW120,0.00,VWS V14.01,2013-08-13 20:41:00,
2013-08-13 13:46:00,86.1,57.5,30.04,SE,138,0.0,0.0,38,0.00,,FEW120,0.00,VWS V14.01,2013-08-13 20:46:00,
2013-08-13 13:51:00,86.1,57.5,30.04,SE,138,0.0,0.0,38,0.00,,FEW120,0.00,VWS V14.01,2013-08-13 20:51:00,
2013-08-13 13:56:00,86.3,57.7,30.04,SE,137,0.0,0.0,38,0.00,,FEW120,0.00,VWS V14.01,2013-08-13 20:56:00,
2013-08-13 14:01:00,86.5,54.0,30.04,SE,138,0.0,2.0,33,0.00,,CLR,0.00,VWS V14.01,2013-08-13 21:01:00,
2013-08-13 14:06:00,86.9,54.4,30.04,SE,138,0.0,0.0,33,0.00,,CLR,0.00,VWS V14.01,2013-08-13 21:06:00,
2013-08-13 14:12:00,87.3,54.7,30.04,SE,138,0.0,0.0,33,0.00,,CLR,0.00,VWS V14.01,2013-08-13 21:12:00,
2013-08-13 14:17:00,87.7,55.1,30.04,SE,138,0.0,0.0,33,0.00,,CLR,0.00,VWS V14.01,2013-08-13 21:17:00,
2013-08-13 14:22:00,88.0,55.3,30.03,SE,138,0.0,0.0,33,0.00,,CLR,0.00,VWS V14.01,2013-08-13 21:22:00,
2013-08-13 14:27:00,88.0,55.3,30.03,SE,138,0.0,0.0,33,0.00,,CLR,0.00,VWS V14.01,2013-08-13 21:27:00,
2013-08-13 14:32:00,89.2,56.4,30.03,SE,138,0.0,0.0,33,0.00,,CLR,0.00,VWS V14.01,2013-08-13 21:32:00,
2013-08-13 14:37:00,89.8,56.9,30.03,SE,138,0.0,0.0,33,0.00,,CLR,0.00,VWS V14.01,2013-08-13 21:37:00,
2013-08-13 14:42:00,90.5,57.5,30.03,SE,138,0.0,0.0,33,0.00,,CLR,0.00,VWS V14.01,2013-08-13 21:42:00,
2013-08-13 14:47:00,90.7,57.7,30.03,SE,138,0.0,0.0,33,0.00,,CLR,0.00,VWS V14.01,2013-08-13 21:47:00,
2013-08-13 14:52:00,91.7,58.5,30.02,SE,138,0.0,0.0,33,0.00,,CLR,0.00,VWS V14.01,2013-08-13 21:52:00,
2013-08-13 14:57:00,92.2,55.4,30.02,SE,138,0.0,0.0,29,0.00,,CLR,0.00,VWS V14.01,2013-08-13 21:57:00,
2013-08-13 15:02:00,92.4,55.6,30.02,SE,138,0.0,0.0,29,0.00,,FEW070,0.00,VWS V14.01,2013-08-13 22:02:00,
2013-08-13 15:07:00,92.6,55.7,30.02,SE,138,0.0,0.0,29,0.00,,FEW070,0.00,VWS V14.01,2013-08-13 22:07:00,
2013-08-13 15:12:00,92.6,55.7,30.02,SE,138,0.0,0.0,29,0.00,,FEW070,0.00,VWS V14.01,2013-08-13 22:12:00,
2013-08-13 15:17:00,92.2,55.4,30.02,SE,138,0.0,0.0,29,0.00,,FEW070,0.00,VWS V14.01,2013-08-13 22:17:00,
2013-08-13 15:23:00,92.0,55.2,30.02,SE,138,0.0,0.0,29,0.00,,FEW070,0.00,VWS V14.01,2013-08-13 22:23:00,
2013-08-13 15:28:00,91.7,55.0,30.02,SE,138,0.0,0.0,29,0.00,,FEW070,0.00,VWS V14.01,2013-08-13 22:28:00,
2013-08-13 15:33:00,91.5,54.8,30.01,SE,138,0.0,0.0,29,0.00,,FEW070,0.00,VWS V14.01,2013-08-13 22:33:00,
2013-08-13 15:38:00,91.5,54.8,30.01,SE,138,0.0,0.0,29,0.00,,FEW070,0.00,VWS V14.01,2013-08-13 22:38:00,
2013-08-13 15:43:00,91.7,52.0,30.01,SE,138,1.0,1.0,26,0.00,,FEW070,0.00,VWS V14.01,2013-08-13 22:43:00,
2013-08-13 15:48:00,91.3,51.7,30.00,WNW,291,0.0,0.0,26,0.00,,FEW070,0.00,VWS V14.01,2013-08-13 22:48:00,
2013-08-13 15:53:00,91.1,50.4,30.00,WNW,291,0.0,0.0,25,0.00,,FEW070,0.00,VWS V14.01,2013-08-13 22:53:00,
2013-08-13 15:58:00,90.9,50.2,30.00,WNW,291,0.0,0.0,25,0.00,,FEW070,0.00,VWS V14.01,2013-08-13 22:58:00,
2013-08-13 16:03:00,90.3,49.7,30.00,WNW,291,0.0,0.0,25,0.00,,CLR,0.00,VWS V14.01,2013-08-13 23:03:00,
2013-08-13 16:08:00,90.0,49.5,30.00,WNW,291,0.0,0.0,25,0.00,,CLR,0.00,VWS V14.01,2013-08-13 23:08:00,
2013-08-13 16:13:00,90.3,49.7,30.00,WNW,291,0.0,0.0,25,0.00,,CLR,0.00,VWS V14.01,2013-08-13 23:13:00,
2013-08-13 16:19:00,90.0,49.5,30.00,WNW,291,0.0,0.0,25,0.00,,CLR,0.00,VWS V14.01,2013-08-13 23:19:00,
2013-08-13 16:24:00,89.8,49.3,30.00,WNW,291,0.0,0.0,25,0.00,,CLR,0.00,VWS V14.01,2013-08-13 23:24:00,
2013-08-13 16:29:00,89.6,49.2,30.00,WNW,291,0.0,0.0,25,0.00,,CLR,0.00,VWS V14.01,2013-08-13 23:29:00,
2013-08-13 16:34:00,89.6,49.2,29.99,WNW,291,0.0,0.0,25,0.00,,CLR,0.00,VWS V14.01,2013-08-13 23:34:00,
2013-08-13 16:39:00,89.6,49.2,29.99,WNW,291,0.0,0.0,25,0.00,,CLR,0.00,VWS V14.01,2013-08-13 23:39:00,
2013-08-13 16:44:00,89.6,52.2,29.99,WNW,291,0.0,0.0,28,0.00,,CLR,0.00,VWS V14.01,2013-08-13 23:44:00,
2013-08-13 16:49:00,90.3,52.8,29.99,WNW,291,0.0,0.0,28,0.00,,CLR,0.00,VWS V14.01,2013-08-13 23:49:00,
2013-08-13 16:54:00,90.9,53.3,29.99,WNW,291,0.0,0.0,28,0.00,,CLR,0.00,VWS V14.01,2013-08-13 23:54:00,
2013-08-13 16:59:00,91.1,53.5,29.99,WNW,291,0.0,0.0,28,0.00,,CLR,0.00,VWS V14.01,2013-08-13 23:59:00,
2013-08-13 17:04:00,90.9,53.3,29.99,WNW,291,0.0,0.0,28,0.00,,CLR,0.00,VWS V14.01,2013-08-14 00:04:00,
2013-08-13 17:09:00,90.7,53.2,29.99,WNW,291,0.0,0.0,28,0.00,,CLR,0.00,VWS V14.01,2013-08-14 00:09:00,
2013-08-13 17:15:00,90.7,53.2,29.99,WNW,291,0.0,0.0,28,0.00,,CLR,0.00,VWS V14.01,2013-08-14 00:15:00,
2013-08-13 17:20:00,90.9,53.3,29.98,WNW,291,0.0,0.0,28,0.00,,CLR,0.00,VWS V14.01,2013-08-14 00:20:00,
2013-08-13 17:25:00,90.3,49.7,29.98,WNW,291,0.0,0.0,25,0.00,,CLR,0.00,VWS V14.01,2013-08-14 00:25:00,
2013-08-13 17:30:00,89.8,49.3,29.98,WNW,291,0.0,0.0,25,0.00,,CLR,0.00,VWS V14.01,2013-08-14 00:30:00,
2013-08-13 17:35:00,89.6,49.2,29.98,WNW,291,0.0,0.0,25,0.00,,CLR,0.00,VWS V14.01,2013-08-14 00:35:00,
2013-08-13 17:40:00,89.2,48.8,29.98,WNW,291,0.0,0.0,25,0.00,,CLR,0.00,VWS V14.01,2013-08-14 00:40:00,
2013-08-13 17:45:00,88.8,48.5,29.98,WNW,292,0.0,0.0,25,0.00,,CLR,0.00,VWS V14.01,2013-08-14 00:45:00,
2013-08-13 17:50:00,87.5,47.4,29.98,WNW,291,0.0,0.0,25,0.00,,CLR,0.00,VWS V14.01,2013-08-14 00:50:00,
2013-08-13 17:55:00,86.7,48.8,29.98,WNW,291,0.0,0.0,27,0.00,,CLR,0.00,VWS V14.01,2013-08-14 00:55:00,
2013-08-13 18:00:00,86.7,48.8,29.98,WNW,291,0.0,0.0,27,0.00,,CLR,0.00,VWS V14.01,2013-08-14 01:00:00,
2013-08-13 18:06:00,86.9,48.9,29.97,WNW,291,0.0,0.0,27,0.00,,CLR,0.00,VWS V14.01,2013-08-14 01:06:00,
2013-08-13 18:11:00,86.7,48.8,29.97,WNW,291,0.0,0.0,27,0.00,,CLR,0.00,VWS V14.01,2013-08-14 01:11:00,
2013-08-13 18:16:00,86.5,48.6,29.97,WNW,291,0.0,0.0,27,0.00,,CLR,0.00,VWS V14.01,2013-08-14 01:16:00,
2013-08-13 18:21:00,86.5,48.6,29.97,WNW,291,0.0,0.0,27,0.00,,CLR,0.00,VWS V14.01,2013-08-14 01:21:00,
2013-08-13 18:26:00,85.9,48.1,29.97,WNW,291,0.0,0.0,27,0.00,,CLR,0.00,VWS V14.01,2013-08-14 01:26:00,
2013-08-13 18:31:00,85.7,47.9,29.97,WNW,291,0.0,0.0,27,0.00,,CLR,0.00,VWS V14.01,2013-08-14 01:31:00,
2013-08-13 18:36:00,85.1,47.4,29.97,WNW,291,0.0,0.0,27,0.00,,CLR,0.00,VWS V14.01,2013-08-14 01:36:00,
2013-08-13 18:41:00,84.8,53.3,29.97,WNW,291,0.0,0.0,34,0.00,,CLR,0.00,VWS V14.01,2013-08-14 01:41:00,
2013-08-13 18:46:00,84.0,55.0,29.97,WNW,291,0.0,0.0,37,0.00,,CLR,0.00,VWS V14.01,2013-08-14 01:46:00,
2013-08-13 18:51:00,83.2,55.0,29.97,WNW,291,0.0,0.0,38,0.00,,CLR,0.00,VWS V14.01,2013-08-14 01:51:00,
2013-08-13 18:57:00,83.2,55.0,29.97,WNW,291,0.0,0.0,38,0.00,,CLR,0.00,VWS V14.01,2013-08-14 01:57:00,
2013-08-13 19:02:00,82.1,54.7,29.97,WNW,291,0.0,0.0,39,0.00,,CLR,0.00,VWS V14.01,2013-08-14 02:02:00,
2013-08-13 19:07:00,81.1,53.8,29.97,WNW,291,0.0,0.0,39,0.00,,CLR,0.00,VWS V14.01,2013-08-14 02:07:00,
2013-08-13 19:12:00,80.6,53.4,29.97,WNW,291,0.0,0.0,39,0.00,,CLR,0.00,VWS V14.01,2013-08-14 02:12:00,
2013-08-13 19:17:00,80.6,53.4,29.97,WNW,291,0.0,0.0,39,0.00,,CLR,0.00,VWS V14.01,2013-08-14 02:17:00,
2013-08-13 19:22:00,79.5,52.4,29.97,WNW,291,0.0,0.0,39,0.00,,CLR,0.00,VWS V14.01,2013-08-14 02:22:00,
2013-08-13 19:27:00,79.1,52.0,29.97,WNW,291,0.0,0.0,39,0.00,,CLR,0.00,VWS V14.01,2013-08-14 02:27:00,
2013-08-13 19:32:00,78.7,51.7,29.97,WNW,291,0.0,0.0,39,0.00,,CLR,0.00,VWS V14.01,2013-08-14 02:32:00,
2013-08-13 19:37:00,78.2,51.2,29.97,WNW,291,0.0,0.0,39,0.00,,CLR,0.00,VWS V14.01,2013-08-14 02:37:00,
2013-08-13 19:42:00,77.7,50.8,29.97,WNW,291,0.0,0.0,39,0.00,,CLR,0.00,VWS V14.01,2013-08-14 02:42:00,
2013-08-13 19:48:00,77.1,50.3,29.97,WNW,291,0.0,0.0,39,0.00,,CLR,0.00,VWS V14.01,2013-08-14 02:48:00,
2013-08-13 19:53:00,76.6,58.2,29.97,WNW,291,0.0,0.0,53,0.00,,CLR,0.00,VWS V14.01,2013-08-14 02:53:00,
2013-08-13 19:58:00,76.1,57.8,29.97,WNW,291,0.0,0.0,53,0.00,,CLR,0.00,VWS V14.01,2013-08-14 02:58:00,
2013-08-13 20:03:00,75.9,57.6,29.97,WNW,291,0.0,0.0,53,0.00,,CLR,0.00,VWS V14.01,2013-08-14 03:03:00,
2013-08-13 20:08:00,75.4,57.1,29.97,WNW,291,0.0,0.0,53,0.00,,CLR,0.00,VWS V14.01,2013-08-14 03:08:00,
2013-08-13 20:13:00,74.7,56.5,29.97,WNW,291,0.0,0.0,53,0.00,,CLR,0.00,VWS V14.01,2013-08-14 03:13:00,
2013-08-13 20:18:00,74.2,56.0,29.97,WNW,291,0.0,0.0,53,0.00,,CLR,0.00,VWS V14.01,2013-08-14 03:18:00,
2013-08-13 20:23:00,73.5,55.3,29.97,WNW,291,0.0,0.0,53,0.00,,CLR,0.00,VWS V14.01,2013-08-14 03:23:00,
2013-08-13 20:28:00,73.1,55.0,29.97,WNW,291,0.0,0.0,53,0.00,,CLR,0.00,VWS V14.01,2013-08-14 03:28:00,
2013-08-13 20:33:00,72.8,54.7,29.97,WNW,291,0.0,0.0,53,0.00,,CLR,0.00,VWS V14.01,2013-08-14 03:33:00,
2013-08-13 20:38:00,72.3,54.2,29.97,WNW,291,0.0,0.0,53,0.00,,CLR,0.00,VWS V14.01,2013-08-14 03:38:00,
2013-08-13 20:43:00,71.6,53.6,29.97,WNW,291,0.0,0.0,53,0.00,,CLR,0.00,VWS V14.01,2013-08-14 03:43:00,
2013-08-13 20:48:00,71.3,53.3,29.98,WNW,291,0.0,0.0,53,0.00,,CLR,0.00,VWS V14.01,2013-08-14 03:48:00,
2013-08-13 20:54:00,70.8,52.8,29.98,WNW,291,0.0,0.0,53,0.00,,CLR,0.00,VWS V14.01,2013-08-14 03:54:00,
2013-08-13 20:59:00,70.3,57.6,29.98,WNW,291,0.0,0.0,64,0.00,,CLR,0.00,VWS V14.01,2013-08-14 03:59:00,
2013-08-13 21:01:00,70.1,57.4,29.98,WNW,291,0.0,0.0,64,0.00,,CLR,0.00,VWS V14.01,2013-08-14 04:01:00,
2013-08-13 21:03:00,69.9,57.2,29.98,WNW,291,0.0,0.0,64,0.00,,CLR,0.00,VWS V14.01,2013-08-14 04:03:00,
2013-08-13 21:06:00,69.8,57.1,29.98,WNW,291,0.0,0.0,64,0.00,,CLR,0.00,VWS V14.01,2013-08-14 04:06:00,
2013-08-13 21:11:00,69.3,56.6,29.98,WNW,291,0.0,0.0,64,0.00,,CLR,0.00,VWS V14.01,2013-08-14 04:11:00,
2013-08-13 21:17:00,68.9,57.9,29.98,WNW,291,0.0,0.0,68,0.00,,CLR,0.00,VWS V14.01,2013-08-14 04:17:00,
2013-08-13 21:22:00,68.4,57.4,29.98,WNW,291,0.0,0.0,68,0.00,,CLR,0.00,VWS V14.01,2013-08-14 04:22:00,
2013-08-13 21:27:00,68.1,57.2,29.98,WNW,291,0.0,0.0,68,0.00,,CLR,0.00,VWS V14.01,2013-08-14 04:27:00,
2013-08-13 21:32:00,67.8,56.9,29.98,WNW,291,0.0,0.0,68,0.00,,CLR,0.00,VWS V14.01,2013-08-14 04:32:00,
2013-08-13 21:37:00,67.4,58.5,29.98,WNW,291,0.0,0.0,73,0.00,,CLR,0.00,VWS V14.01,2013-08-14 04:37:00,
2013-08-13 21:42:00,67.1,58.2,29.98,WNW,291,0.0,0.0,73,0.00,,CLR,0.00,VWS V14.01,2013-08-14 04:42:00,
2013-08-13 21:47:00,67.0,58.1,29.98,WNW,291,0.0,0.0,73,0.00,,CLR,0.00,VWS V14.01,2013-08-14 04:47:00,
2013-08-13 21:52:00,66.6,58.4,29.98,WNW,291,0.0,0.0,75,0.00,,CLR,0.00,VWS V14.01,2013-08-14 04:52:00,
2013-08-13 21:57:00,66.6,58.4,29.98,WNW,291,0.0,0.0,75,0.00,,CLR,0.00,VWS V14.01,2013-08-14 04:57:00,
2013-08-13 22:02:00,66.5,58.3,29.99,WNW,291,0.0,0.0,75,0.00,,CLR,0.00,VWS V14.01,2013-08-14 05:02:00,
2013-08-13 22:07:00,66.2,58.8,29.99,WNW,291,0.0,0.0,77,0.00,,CLR,0.00,VWS V14.01,2013-08-14 05:07:00,
2013-08-13 22:12:00,65.8,58.4,29.99,WNW,291,0.0,0.0,77,0.00,,CLR,0.00,VWS V14.01,2013-08-14 05:12:00,
2013-08-13 22:18:00,65.7,58.7,29.98,WNW,291,0.0,0.0,78,0.00,,CLR,0.00,VWS V14.01,2013-08-14 05:18:00,
2013-08-13 22:23:00,65.3,58.3,29.98,WNW,291,0.0,0.0,78,0.00,,CLR,0.00,VWS V14.01,2013-08-14 05:23:00,
2013-08-13 22:28:00,65.3,58.3,29.98,WNW,291,0.0,0.0,78,0.00,,CLR,0.00,VWS V14.01,2013-08-14 05:28:00,
2013-08-13 22:33:00,65.3,58.3,29.98,WNW,291,0.0,0.0,78,0.00,,CLR,0.00,VWS V14.01,2013-08-14 05:33:00,
2013-08-13 22:38:00,65.3,57.5,29.98,WNW,291,0.0,0.0,76,0.00,,CLR,0.00,VWS V14.01,2013-08-14 05:38:00,
2013-08-13 22:43:00,65.2,57.5,29.98,WNW,291,0.0,0.0,76,0.00,,CLR,0.00,VWS V14.01,2013-08-14 05:43:00,
2013-08-13 22:48:00,65.2,57.5,29.98,WNW,291,0.0,0.0,76,0.00,,CLR,0.00,VWS V14.01,2013-08-14 05:48:00,
2013-08-13 22:53:00,65.2,57.5,29.98,WNW,291,0.0,0.0,76,0.00,,CLR,0.00,VWS V14.01,2013-08-14 05:53:00,
2013-08-13 22:58:00,65.0,57.3,29.98,WNW,291,0.0,0.0,76,0.00,,CLR,0.00,VWS V14.01,2013-08-14 05:58:00,
2013-08-13 23:03:00,64.9,57.2,29.98,WNW,291,0.0,0.0,76,0.00,,CLR,0.00,VWS V14.01,2013-08-14 06:03:00,
2013-08-13 23:09:00,64.9,57.2,29.98,WNW,291,0.0,0.0,76,0.00,,CLR,0.00,VWS V14.01,2013-08-14 06:09:00,
2013-08-13 23:14:00,64.2,56.5,29.98,WNW,291,0.0,0.0,76,0.00,,CLR,0.00,VWS V14.01,2013-08-14 06:14:00,
2013-08-13 23:19:00,63.9,57.3,29.98,WNW,291,0.0,0.0,79,0.00,,CLR,0.00,VWS V14.01,2013-08-14 06:19:00,
2013-08-13 23:24:00,63.7,57.1,29.98,WNW,291,0.0,0.0,79,0.00,,CLR,0.00,VWS V14.01,2013-08-14 06:24:00,
2013-08-13 23:29:00,63.6,57.0,29.98,WNW,291,0.0,0.0,79,0.00,,CLR,0.00,VWS V14.01,2013-08-14 06:29:00,
2013-08-13 23:34:00,63.6,57.0,29.98,WNW,291,0.0,0.0,79,0.00,,CLR,0.00,VWS V14.01,2013-08-14 06:34:00,
2013-08-13 23:39:00,63.6,57.0,29.98,WNW,291,0.0,0.0,79,0.00,,CLR,0.00,VWS V14.01,2013-08-14 06:39:00,
2013-08-13 23:44:00,63.7,57.1,29.98,WNW,291,0.0,0.0,79,0.00,,CLR,0.00,VWS V14.01,2013-08-14 06:44:00,
2013-08-13 23:49:00,63.7,57.1,29.98,WNW,291,0.0,0.0,79,0.00,,CLR,0.00,VWS V14.01,2013-08-14 06:49:00,
2013-08-13 23:55:00,63.6,57.3,29.98,WNW,291,0.0,0.0,80,0.00,,CLR,0.00,VWS V14.01,2013-08-14 06:55:00,